Weather History for Long Prairie, MN

Change the Weather History Date:

Friday, October 25, 2013

  Actual Average (KAXN) Record (KAXN)
Temperature  
Mean Temperature 39 °F -  
Max Temperature 55 °F 52 °F 81 °F (1989)
Min Temperature 23 °F 35 °F 20 °F (1957)
Degree Days  
Heating Degree Days 26    
Moisture  
Dew Point 31 °F    
Average Humidity 74    
Maximum Humidity 100    
Minimum Humidity 51    
Precipitation  
Precipitation 0.00 in - - ()
Sea Level Pressure  
Sea Level Pressure 30.01 in    
Wind  
Wind Speed 8 mph (SSW)    
Max Wind Speed 21 mph    
Max Gust Speed 28 mph    
Visibility 10 miles    
Events      
Averages and records for this station are not official NWS values.
T = Trace of Precipitation, MM = Missing Value Source: NWS Daily Summary

Daily Weather History Graph

Daily Weather History Graph

Search for Another Location

Airport:

Trip Planner

Search our weather history database for the weather conditions in past years. The results will help you decide how hot, cold, wet, or windy it might be!

Date:

Astronomy

Oct. 25, 2013 Rise Set
Actual Time 7:50 AM CDT 6:15 PM CDT
Civil Twilight 7:19 AM CDT 6:46 PM CDT
Nautical Twilight 6:44 AM CDT 7:21 PM CDT
Astronomical Twilight 6:10 AM CDT 7:55 PM CDT
Moon 11:32 PM CDT (10/25) 1:36 PM CDT (10/25)
Length of Visible Light 11h 26m
Length of Day
10h 25m
Waning Gibbous, 62% of the Moon is Illuminated
Oct 25
Waning Gibbous
Oct 26
Last Quarter
Nov 3
New
Nov 9
First Quarter
Nov 17
Full

Hourly Weather History & Observations

Time (CDT) Temp. Windchill Dew Point Humidity Pressure Visibility Wind Dir Wind Speed Gust Speed Precip Events Conditions
12:16 AM 33.8 °F 28.6 °F 30.2 °F 87% 30.29 in 10.0 mi SW 5.8 mph - N/A   Overcast
12:36 AM 32.0 °F 27.5 °F 28.4 °F 87% 30.29 in 10.0 mi SW 4.6 mph - N/A   Overcast
12:56 AM 32.0 °F 27.5 °F 28.4 °F 87% 30.29 in 10.0 mi SW 4.6 mph - N/A   Overcast
1:16 AM 32.0 °F 27.5 °F 28.4 °F 87% 30.28 in 10.0 mi SW 4.6 mph - N/A   Overcast
1:37 AM 30.2 °F 26.7 °F 28.4 °F 93% 30.28 in 10.0 mi SSW 3.5 mph - N/A   Overcast
1:57 AM 30.2 °F 25.4 °F 28.4 °F 93% 30.28 in 10.0 mi SW 4.6 mph - N/A   Mostly Cloudy
2:16 AM 28.4 °F 24.6 °F 26.6 °F 93% 30.28 in 10.0 mi SSW 3.5 mph - N/A   Scattered Clouds
2:36 AM 28.4 °F - 26.6 °F 93% 30.28 in 10.0 mi Calm Calm - N/A   Clear
2:56 AM 26.6 °F 22.6 °F 26.6 °F 100% 30.27 in 10.0 mi SSW 3.5 mph - N/A   Clear
3:16 AM 26.6 °F 21.2 °F 26.6 °F 100% 30.27 in 10.0 mi SSW 4.6 mph - N/A   Clear
3:37 AM 26.6 °F 21.2 °F 26.6 °F 100% 30.26 in 10.0 mi South 4.6 mph - N/A   Clear
3:57 AM 26.6 °F 22.6 °F 24.8 °F 93% 30.26 in 10.0 mi South 3.5 mph - N/A   Clear
4:16 AM 26.6 °F 22.6 °F 23.0 °F 86% 30.25 in 10.0 mi South 3.5 mph - N/A   Clear
4:36 AM 26.6 °F 21.2 °F 24.8 °F 93% 30.24 in 10.0 mi South 4.6 mph - N/A   Clear
4:57 AM 26.6 °F 22.6 °F 24.8 °F 93% 30.24 in 10.0 mi South 3.5 mph - N/A   Clear
5:17 AM 26.6 °F 21.2 °F 24.8 °F 93% 30.24 in 10.0 mi South 4.6 mph - N/A   Clear
5:37 AM 26.6 °F 20.0 °F 24.8 °F 93% 30.24 in 10.0 mi SSW 5.8 mph - N/A   Clear
5:57 AM 26.6 °F 19.1 °F 24.8 °F 93% 30.23 in 10.0 mi South 6.9 mph - N/A   Clear
6:16 AM 26.6 °F 20.0 °F 24.8 °F 93% 30.23 in 10.0 mi South 5.8 mph - N/A   Clear
6:36 AM 26.6 °F 20.0 °F 23.0 °F 86% 30.22 in 10.0 mi South 5.8 mph - N/A   Clear
6:56 AM 26.6 °F 22.6 °F 24.8 °F 93% 30.21 in 10.0 mi SSE 3.5 mph - N/A   Clear
7:16 AM 23.0 °F 15.8 °F 23.0 °F 100% 30.20 in 10.0 mi SSE 5.8 mph - N/A   Clear
7:36 AM 24.8 °F 19.1 °F 23.0 °F 93% 30.19 in 10.0 mi South 4.6 mph - N/A   Clear
7:56 AM 26.6 °F 20.0 °F 23.0 °F 86% 30.18 in 10.0 mi South 5.8 mph - N/A   Clear
8:17 AM 28.4 °F 21.2 °F 24.8 °F 86% 30.17 in 10.0 mi South 6.9 mph - N/A   Clear
8:37 AM 28.4 °F 20.4 °F 24.8 °F 86% 30.17 in 10.0 mi South 8.1 mph - N/A   Clear
8:56 AM 28.4 °F 20.4 °F 26.6 °F 93% 30.16 in 10.0 mi South 8.1 mph - N/A   Clear
9:16 AM 30.2 °F 21.3 °F 26.6 °F 86% 30.15 in 10.0 mi South 10.4 mph - N/A   Clear
9:37 AM 32.0 °F 23.6 °F 26.6 °F 80% 30.13 in 10.0 mi South 10.4 mph - N/A   Clear
9:56 AM 32.0 °F 24.2 °F 28.4 °F 87% 30.11 in 10.0 mi South 9.2 mph - N/A   Clear
10:16 AM 32.0 °F 23.6 °F 30.2 °F 93% 30.10 in 10.0 mi South 10.4 mph - N/A   Clear
10:36 AM 35.6 °F 27.5 °F 30.2 °F 81% 30.08 in 10.0 mi South 11.5 mph - N/A   Clear
10:57 AM 35.6 °F 27.1 °F 30.2 °F 81% 30.08 in 10.0 mi South 12.7 mph - N/A   Clear
11:17 AM 37.4 °F 28.9 °F 30.2 °F 75% 30.06 in 10.0 mi South 13.8 mph - N/A   Clear
11:37 AM 41.0 °F 34.7 °F 30.2 °F 65% 30.04 in 10.0 mi South 10.4 mph - N/A   Clear
11:56 AM 41.0 °F 33.5 °F 30.2 °F 65% 30.02 in 10.0 mi South 13.8 mph 19.6 mph N/A   Clear
12:16 PM 42.8 °F 36.2 °F 32.0 °F 66% 30.00 in 10.0 mi South 12.7 mph 19.6 mph N/A   Clear
12:37 PM 44.6 °F 37.2 °F 33.8 °F 66% 29.97 in 10.0 mi South 17.3 mph 21.9 mph N/A   Clear
12:57 PM 46.4 °F 38.7 °F 33.8 °F 62% 29.95 in 10.0 mi South 20.7 mph 25.3 mph N/A   Clear
1:16 PM 44.6 °F 37.4 °F 33.8 °F 66% 29.94 in 10.0 mi South 16.1 mph 24.2 mph N/A   Clear
1:36 PM 48.2 °F - 35.6 °F 62% 29.92 in 10.0 mi South 18.4 mph 23.0 mph N/A   Clear
1:56 PM 46.4 °F 39.5 °F 33.8 °F 62% 29.90 in 10.0 mi South 17.3 mph 20.7 mph N/A   Clear
2:17 PM 48.2 °F - 33.8 °F 58% 29.88 in 10.0 mi South 20.7 mph 25.3 mph N/A   Clear
2:37 PM 48.2 °F - 35.6 °F 62% 29.87 in 10.0 mi South 12.7 mph 21.9 mph N/A   Clear
2:57 PM 50.0 °F - 35.6 °F 58% 29.85 in 10.0 mi South 15.0 mph 20.7 mph N/A   Clear
3:17 PM 51.8 °F - 35.6 °F 54% 29.83 in 10.0 mi South 17.3 mph - N/A   Clear
3:36 PM 53.6 °F - 37.4 °F 54% 29.82 in 10.0 mi South 17.3 mph 23.0 mph N/A   Clear
3:56 PM 53.6 °F - 37.4 °F 54% 29.80 in 10.0 mi South 18.4 mph 27.6 mph N/A   Clear
4:17 PM 53.6 °F - 37.4 °F 54% 29.78 in 10.0 mi South 15.0 mph 18.4 mph N/A   Clear
4:37 PM 55.4 °F - 37.4 °F 51% 29.77 in 10.0 mi SSW 13.8 mph - N/A   Clear
4:57 PM 55.4 °F - 37.4 °F 51% 29.78 in 10.0 mi SW 15.0 mph 24.2 mph N/A   Clear
5:17 PM 55.4 °F - 37.4 °F 51% 29.77 in 10.0 mi SW 16.1 mph 23.0 mph N/A   Scattered Clouds
5:36 PM 55.4 °F - 39.2 °F 54% 29.76 in 10.0 mi WSW 11.5 mph 21.9 mph N/A   Scattered Clouds
5:57 PM 55.4 °F - 39.2 °F 54% 29.77 in 10.0 mi WSW 15.0 mph 26.5 mph N/A   Clear
6:17 PM 53.6 °F - 37.4 °F 54% 29.77 in 10.0 mi WSW 12.7 mph 25.3 mph N/A   Clear
6:37 PM 53.6 °F - 39.2 °F 58% 29.77 in 10.0 mi SW 9.2 mph - N/A   Clear
6:57 PM 53.6 °F - 39.2 °F 58% 29.77 in 10.0 mi WSW 9.2 mph - N/A   Clear
7:16 PM 51.8 °F - 39.2 °F 62% 29.78 in 10.0 mi WSW 5.8 mph - N/A   Clear
7:37 PM 51.8 °F - 39.2 °F 62% 29.79 in 10.0 mi WSW 10.4 mph - N/A   Clear
7:57 PM 51.8 °F - 39.2 °F 62% 29.79 in 10.0 mi West 9.2 mph - N/A   Clear
8:16 PM 50.0 °F - 39.2 °F 66% 29.79 in 10.0 mi WSW 10.4 mph - N/A   Clear
8:36 PM 50.0 °F - 37.4 °F 62% 29.78 in 10.0 mi WSW 8.1 mph - N/A   Clear
8:56 PM 48.2 °F - 37.4 °F 66% 29.79 in 10.0 mi West 6.9 mph - N/A   Clear
9:16 PM 48.2 °F - 37.4 °F 66% 29.79 in 10.0 mi West 8.1 mph - N/A   Scattered Clouds
9:37 PM 46.4 °F 42.4 °F 37.4 °F 71% 29.79 in 10.0 mi WSW 8.1 mph - N/A   Mostly Cloudy
9:57 PM 46.4 °F 41.5 °F 37.4 °F 71% 29.79 in 10.0 mi West 10.4 mph 16.1 mph N/A   Scattered Clouds
10:17 PM 46.4 °F 41.1 °F 35.6 °F 66% 29.80 in 10.0 mi West 11.5 mph - N/A   Clear
10:37 PM 46.4 °F 40.7 °F 33.8 °F 62% 29.81 in 10.0 mi WNW 12.7 mph 19.6 mph N/A   Clear
10:56 PM 46.4 °F 41.5 °F 32.0 °F 57% 29.82 in 10.0 mi WNW 10.4 mph 24.2 mph N/A   Clear
11:16 PM 44.6 °F 36.6 °F 32.0 °F 61% 29.82 in 10.0 mi WNW 19.6 mph 26.5 mph N/A   Clear
11:37 PM 42.8 °F 34.3 °F 30.2 °F 61% 29.83 in 10.0 mi WNW 19.6 mph 25.3 mph N/A   Clear
11:57 PM 42.8 °F 35.8 °F 32.0 °F 66% 29.84 in 10.0 mi WNW 13.8 mph 24.2 mph N/A   Clear